CW5920 Weather Reports


time (UTC)temp
F
wind
direction
speed
knots
gust
knots
rain 1hr
in
rain 24hr
in
rain mn
in
humidity
%
barometer
mb
20260503220016 79 225 5.2 13.0 0.00 0.00 0.00 37 1016.2
20260503215036 80 225 5.2 12.2 0.00 0.00 0.00 36 1016.5
20260503214016 80 203 9.6 14.8 0.00 0.00 0.00 37 1016.5
20260503213016 80 203 7.8 12.2 0.00 0.00 0.00 37 1016.8
20260503212016 80 203 7.0 13.0 0.00 0.00 0.00 37 1016.8
20260503211016 81 203 7.8 13.9 0.00 0.00 0.00 36 1017.1
20260503210016 81 203 7.8 13.0 0.00 0.00 0.00 37 1017.3
20260503205016 82 203 2.6 7.8 0.00 0.00 0.00 37 1017.5
20260503204016 81 203 1.7 8.7 0.00 0.00 0.00 36 1017.6
20260503203016 81 203 8.7 13.9 0.00 0.00 0.00 36 1017.9
20260503202036 81 225 4.3 11.3 0.00 0.00 0.00 38 1018.2
20260503201016 81 270 1.7 7.8 0.00 0.00 0.00 37 1018.4
20260503200016 81 225 0.9 4.3 0.00 0.00 0.00 35 1018.3
20260503195035 82 203 6.1 15.6 0.00 0.00 0.00 37 1018.6
20260503194016 81 270 0.9 3.5 0.00 0.00 0.00 35 1018.6
20260503193016 81 225 2.6 10.4 0.00 0.00 0.00 36 1018.9
20260503192015 81 203 7.8 14.8 0.00 0.00 0.00 36 1019.0
20260503191016 81 270 1.7 6.1 0.00 0.00 0.00 35 1019.3
20260503190016 81 203 5.2 12.2 0.00 0.00 0.00 37 1019.5
20260503185016 81 203 3.5 12.2 0.00 0.00 0.00 37 1019.5
20260503184016 81 203 2.6 7.0 0.00 0.00 0.00 41 1019.7
20260503183016 81 225 2.6 8.7 0.00 0.00 0.00 39 1019.9
20260503182036 81 225 2.6 8.7 0.00 0.00 0.00 41 1020.0
20260503181016 80 225 1.7 5.2 0.00 0.00 0.00 40 1020.2
20260503180016 80 270 1.7 7.0 0.00 0.00 0.00 41 1020.4
20260503174016 79 248 2.6 10.4 0.00 0.00 0.00 44 1020.7
20260503173015 79 270 1.7 5.2 0.00 0.00 0.00 44 1021.0
20260503172016 79 225 0.9 2.6 0.00 0.00 0.00 49 1021.1
20260503171035 78 225 0.9 2.6 0.00 0.00 0.00 49 1021.3
20260503131015 60 0.0 0.0 0.00 0.00 0.00 76 1021.3
20260503081036 58 0.0 0.9 0.00 0.00 0.00 74 1019.9
20260503072016 58 0.0 0.0 0.00 0.00 0.00 74 1020.2
20260503071016 59 0.0 0.0 0.00 0.00 0.00 73 1020.4
20260503055016 61 225 0.9 4.3 0.00 0.00 0.00 68 1020.4
20260503054016 62 225 1.7 7.0 0.00 0.00 0.00 67 1020.4
20260503053016 62 203 1.7 5.2 0.00 0.00 0.00 67 1020.3
20260503052016 63 225 2.6 7.0 0.00 0.00 0.00 67 1020.2
20260503051016 63 203 1.7 5.2 0.00 0.00 0.00 66 1020.2
20260503050016 64 225 2.6 6.1 0.00 0.00 0.00 65 1020.2
20260503045016 64 225 3.5 7.8 0.00 0.00 0.00 64 1020.0
20260503044016 64 225 3.5 7.0 0.00 0.00 0.00 63 1020.1
20260503043016 64 225 2.6 6.1 0.00 0.00 0.00 63 1020.0
20260503042036 64 225 1.7 6.1 0.00 0.00 0.00 62 1020.1
20260503041136 64 0.0 0.9 0.00 0.00 0.00 61 1020.2
20260503040016 64 0.0 0.0 0.00 0.00 0.00 61 1020.1
20260503035016 64 0.0 0.0 0.00 0.00 0.00 62 1020.0
20260503034016 64 0.0 0.0 0.00 0.00 0.00 61 1020.1
20260503033016 64 0.0 0.0 0.00 0.00 0.00 60 1020.0
20260503032036 64 225 0.9 4.3 0.00 0.00 0.00 59 1019.9
20260503031136 65 0.0 0.0 0.00 0.00 0.00 58 1019.8
20260503030016 65 0.0 0.0 0.00 0.00 0.00 58 1019.7
20260503025016 65 0.0 0.0 0.00 0.00 0.00 58 1019.6
20260503024036 66 0.0 0.0 0.00 0.00 0.00 57 1019.5
20260503023016 66 0.0 0.0 0.00 0.00 0.00 56 1019.4
20260503022036 66 0.0 0.0 0.00 0.00 0.00 56 1019.2
20260503021016 67 0.0 0.0 0.00 0.00 0.00 55 1019.2
20260503020016 68 0.0 0.0 0.00 0.00 0.00 54 1019.1
20260503015016 68 0.0 0.0 0.00 0.00 0.00 54 1019.0
20260503014016 69 0.0 0.0 0.00 0.00 0.00 53 1019.0
20260503013016 70 0.0 0.0 0.00 0.00 0.00 53 1018.9
20260503012016 71 0.0 0.0 0.00 0.00 0.00 52 1018.9
20260503011016 71 0.0 0.0 0.00 0.00 0.00 51 1018.8
20260503010056 72 0.0 0.0 0.00 0.00 0.00 50 1018.8
20260503005016 72 0.0 0.0 0.00 0.00 0.00 48 1018.8
20260503004016 72 0.0 0.0 0.00 0.00 0.00 47 1018.9
20260503003016 73 0.0 0.0 0.00 0.00 0.00 47 1018.8
20260503002016 73 0.0 0.0 0.00 0.00 0.00 47 1018.8
20260503001016 73 0.0 0.0 0.00 0.00 0.00 45 1018.6
20260503000056 74 0.0 0.9 0.00 0.00 0.00 44 1018.6
20260502235016 74 0.0 0.0 0.00 0.00 0.00 43 1018.7
20260502234016 74 0.0 0.0 0.00 0.00 0.00 44 1018.8
20260502233016 74 0.0 2.6 0.00 0.00 0.00 44 1018.9
20260502232036 75 0 0.9 3.5 0.00 0.00 0.00 42 1018.9
20260502231016 75 0 0.9 2.6 0.00 0.00 0.00 40 1018.9
20260502230016 75 0.0 1.7 0.00 0.00 0.00 42 1019.0
20260502225016 75 0 1.7 3.5 0.00 0.00 0.00 39 1018.9
20260502224036 75 0 0.9 5.2 0.00 0.00 0.00 41 1019.0
20260502223016 76 23 0.9 2.6 0.00 0.00 0.00 40 1019.1
20260502222036 76 0.0 0.9 0.00 0.00 0.00 40 1019.2
20260502221016 76 0 1.7 6.1 0.00 0.00 0.00 39 1019.3